Regional Weather Roundup
Issued by NWS Goodland, KS

Home | Current Version | Previous Version | Text Only | Print | Product List | Glossary Off
Versions: 1 2 3 4 5 6 7 8 9 10 11 12 13 14 15 16 17 18 19 20 21 22 23 24 25 26 27 28 29 30 31 32 33 34 35 36 37 38 39 40 41 42 43 44 45 46 47 48 49 50

000
ASUS43 KGLD 291259
RWRGLD

GOODLAND FORECAST AREA HOURLY WEATHER ROUNDUP
NATIONAL WEATHER SERVICE GOODLAND KS
700 AM MDT TUE JUL 29 2014

...OFFICIAL OBSERVATIONS...

CITY           SKY/WX    TMP DP  RH WIND       PRES   REMARKS
GOODLAND KS    MOSUNNY   62  60  93 S7        30.22R
HILL CITY KS   SUNNY     64  56  75 E5        30.22R
IMPERIAL NEB   SUNNY     59  55  87 E9        30.22R
MCCOOK NEB     SUNNY     60  56  86 E8        30.23R
AKRON CO       MOSUNNY   65  58  78 S3        30.23R
BURLINGTON CO  SUNNY     61  59  93 S9        30.22R
LIMON CO       FOG       58  58 100 CALM      30.28R VSB<1/4
$$

...UNOFFICIAL OBSERVATIONS...

CITY           SKY/WX    TMP DP  RH WIND       PRES   REMARKS
COLBY KS       SUNNY     61  61 100 E7        30.22S
LENORA KS        N/A     62  32  32 MISG        N/A
NORTON KS      SUNNY     61  52  72 E7        30.22R
KIT CARSON CO    N/A     64  60  88 N8G16       N/A
YUMA CO          N/A     60  57  90 CALM        N/A
$$



USA.gov is the U.S. government's official web portal to all federal, state and local government web resources and services.